Ponca City, OK

7:46 PM CDT on September 25, 2017 (GMT -0500)
Ponca City Municipal

Weather History for KPNC - January, 2013

Change the Weather History Date:

Sunday, January 13, 2013

  Actual Average Record
Temperature  
Mean Temperature 23 °F -  
Max Temperature 30 °F 48 °F 67 °F (1952)
Min Temperature 16 °F 20 °F 0 °F (1963)
Degree Days  
Heating Degree Days 42    
Moisture  
Dew Point 9 °F    
Average Humidity 59    
Maximum Humidity 71    
Minimum Humidity 40    
Precipitation  
Precipitation 0.00 in - - ()
Sea Level Pressure  
Sea Level Pressure 30.30 in    
Wind  
Wind Speed 11 mph (North)    
Max Wind Speed 20 mph    
Max Gust Speed 25 mph    
Visibility 10 miles    
Events      
Averages and records for this station are not official NWS values.
T = Trace of Precipitation, MM = Missing Value Source: NWS Daily Summary

Daily Weather History Graph

Daily Weather History Graph

Search for Another Location

Airport or City:

Trip Planner

Search our weather history database for the weather conditions in past years. The results will help you decide how hot, cold, wet, or windy it might be!

Date:

Astronomy

Jan. 13, 2013 Rise Set
Actual Time 7:40 AM CST 5:34 PM CST
Civil Twilight 7:12 AM CST 6:02 PM CST
Nautical Twilight 6:40 AM CST 6:34 PM CST
Astronomical Twilight 6:09 AM CST 7:05 PM CST
Moon 8:44 AM CST (1/13) 8:08 PM CST (1/13)
Length of Visible Light 10h 50m
Length of Day
9h 53m
Waxing Crescent, 5% of the Moon is Illuminated
Jan 13
Waxing Crescent
Jan 18
First Quarter
Jan 26
Full
Feb 3
Last Quarter
Feb 10
New

Hourly Weather History & Observations

Time (CST) Temp. Windchill Dew Point Humidity Pressure Visibility Wind Dir Wind Speed Gust Speed Precip Events Conditions
12:53 AM 23.0 °F 9.6 °F 12.0 °F 63% 30.12 in 10.0 mi North 16.1 mph - N/A   Clear
1:53 AM 21.9 °F 6.9 °F 10.9 °F 63% 30.15 in 10.0 mi North 19.6 mph 23.0 mph N/A   Clear
2:53 AM 21.0 °F 9.3 °F 9.0 °F 60% 30.19 in 10.0 mi North 11.5 mph 25.3 mph N/A   Clear
3:53 AM 19.9 °F 7.3 °F 9.0 °F 62% 30.19 in 10.0 mi North 12.7 mph - N/A   Clear
4:53 AM 19.0 °F 7.5 °F 9.0 °F 65% 30.21 in 10.0 mi North 10.4 mph - N/A   Clear
5:53 AM 17.1 °F 10.0 °F 9.0 °F 71% 30.24 in 10.0 mi North 4.6 mph - N/A   Clear
6:53 AM 19.0 °F 8.2 °F 10.0 °F 68% 30.25 in 10.0 mi North 9.2 mph - N/A   Clear
7:53 AM 17.1 °F 6.6 °F 7.0 °F 65% 30.29 in 10.0 mi North 8.1 mph - N/A   Clear
8:53 AM 18.0 °F 6.1 °F 9.0 °F 68% 30.33 in 10.0 mi NNW 10.4 mph - N/A   Clear
9:53 AM 19.9 °F 7.3 °F 9.0 °F 62% 30.37 in 10.0 mi NNW 12.7 mph - N/A   Clear
10:53 AM 21.0 °F 9.3 °F 8.1 °F 57% 30.37 in 10.0 mi NW 11.5 mph - N/A   Clear
11:53 AM 24.1 °F 13.1 °F 9.0 °F 53% 30.35 in 10.0 mi NNW 11.5 mph - N/A   Clear
12:53 PM 26.1 °F 17.6 °F 10.0 °F 51% 30.30 in 10.0 mi NNW 8.1 mph 19.6 mph N/A   Clear
1:53 PM 28.9 °F 19.2 °F 10.0 °F 45% 30.29 in 10.0 mi North 11.5 mph - N/A   Clear
2:53 PM 30.9 °F 22.8 °F 10.0 °F 42% 30.30 in 10.0 mi North 9.2 mph - N/A   Clear
3:53 PM 30.9 °F 20.7 °F 9.0 °F 40% 30.30 in 10.0 mi North 13.8 mph - N/A   Clear
4:53 PM 30.0 °F 22.4 °F 8.1 °F 40% 30.33 in 10.0 mi North 8.1 mph - N/A   Clear
5:53 PM 26.1 °F 19.4 °F 8.1 °F 47% 30.34 in 10.0 mi NNW 5.8 mph - N/A   Clear
6:53 PM 21.9 °F 15.7 °F 10.0 °F 60% 30.35 in 10.0 mi North 4.6 mph - N/A   Clear
7:53 PM 21.0 °F 16.2 °F 9.0 °F 60% 30.36 in 10.0 mi NNE 3.5 mph - N/A   Clear
8:53 PM 19.0 °F 12.3 °F 10.0 °F 68% 30.35 in 10.0 mi North 4.6 mph - N/A   Clear
9:53 PM 19.0 °F 12.3 °F 8.1 °F 62% 30.35 in 10.0 mi NNE 4.6 mph - N/A   Clear
10:53 PM 16.0 °F - 8.1 °F 71% 30.38 in 10.0 mi Calm Calm - N/A   Clear
11:53 PM 18.0 °F - 9.0 °F 68% 30.42 in 10.0 mi Calm Calm - N/A   Clear